Location: Zagreb
(45.8000°N, 16.0000°E)
Time: 00:43:44
(UTC+01:00)

Vanguard 2 - All Passes

Search period start: 26 January 2020 00:00
Search period end: 05 February 2020 00:00
Orbit: 553 x 2938 km, 32.9° (Epoch: 25 January)

Date Brightness Start Highest point End Pass type
(mag) Time Alt. Az. Time Alt. Az. Time Alt. Az.
26 Jan - 08:40:46 10° SSW 08:50:12 20° SSE 08:57:37 10° ESE daylight
26 Jan - 10:48:42 10° SW 10:59:45 32° S 11:07:07 10° ESE daylight
26 Jan - 12:59:40 10° WSW 13:08:31 33° S 13:14:17 10° SE daylight
26 Jan - 15:11:43 10° WSW 15:16:01 17° SSW 15:19:25 10° S daylight
27 Jan - 08:56:43 10° SSW 09:07:57 25° SSE 09:16:19 10° ESE daylight
27 Jan - 11:06:01 10° SW 11:17:30 36° S 11:25:00 10° ESE daylight
27 Jan - 13:17:31 10° WSW 13:26:08 31° SSW 13:31:48 10° SE daylight
27 Jan - 15:30:32 10° WSW 15:33:22 13° SW 15:35:48 10° S daylight
28 Jan - 07:08:20 10° S 07:15:50 15° SE 07:22:26 10° ESE daylight
28 Jan - 09:13:14 10° SSW 09:25:41 30° SSE 09:34:37 10° ESE daylight
28 Jan - 11:23:32 10° WSW 11:35:15 38° S 11:42:46 10° ESE daylight
28 Jan - 13:35:29 10° WSW 13:43:42 29° SSW 13:49:12 10° SE daylight
29 Jan - 07:22:57 10° S 07:33:28 20° SSE 07:42:12 10° ESE daylight
29 Jan - 09:30:09 10° SW 09:43:27 35° SSE 09:52:42 10° ESE daylight
29 Jan - 11:41:13 10° WSW 11:52:58 39° S 12:00:27 10° ESE daylight
29 Jan - 13:53:35 10° WSW 14:01:10 25° SSW 14:06:26 10° SSE daylight
30 Jan - 07:38:40 10° SSW 07:51:07 26° SSE 08:01:04 10° ESE daylight
30 Jan - 09:47:21 10° SW 10:01:12 39° S 10:10:37 10° ESE daylight
30 Jan - 11:59:01 10° WSW 12:10:39 39° S 12:18:02 10° SE daylight
30 Jan - 14:11:53 10° WSW 14:18:32 21° SSW 14:23:24 10° SSE daylight
31 Jan - 05:51:53 10° SSE 05:58:51 14° SE 06:05:22 10° ESE visible
31 Jan - 07:54:59 10° SSW 08:08:47 31° SSE 08:19:30 10° ESE daylight
31 Jan - 10:04:48 10° WSW 10:18:58 42° S 10:28:26 10° ESE daylight
31 Jan - 12:16:56 10° WSW 12:28:15 37° SSW 12:35:32 10° SE daylight
31 Jan - 14:30:31 10° WSW 14:35:49 16° SW 14:39:57 10° S daylight
01 Feb - 06:05:51 10° S 06:16:20 19° SE 06:25:46 10° ESE visible
01 Feb - 08:11:44 10° SW 08:26:29 36° SSE 08:37:40 10° E daylight
01 Feb - 10:22:24 10° WSW 10:36:43 44° S 10:46:10 10° ESE daylight
01 Feb - 12:34:57 10° W 12:45:48 34° SSW 12:52:54 10° SE daylight
01 Feb - 14:50:02 10° WSW 14:53:00 12° SW 14:55:35 10° SSW daylight
02 Feb - 06:21:14 10° SSW 06:33:50 25° SSE 06:44:56 10° E visible
02 Feb - 08:28:49 10° SW 08:44:12 41° SSE 08:55:39 10° ESE daylight
02 Feb - 10:40:09 10° WSW 10:54:27 45° S 11:03:50 10° ESE daylight
02 Feb - 12:53:05 10° W 13:03:15 30° SSW 13:10:06 10° SSE daylight
03 Feb - 04:37:31 10° SSE 04:41:44 11° SE 04:45:55 10° ESE visible
03 Feb - 06:37:20 10° SSW 06:51:23 30° SSE 07:03:32 10° E visible
03 Feb - 08:46:08 10° SW 09:01:57 45° S 09:13:32 10° ESE daylight
03 Feb - 10:58:00 10° WSW 11:12:07 44° SSW 11:21:24 10° SE daylight
03 Feb - 13:11:23 10° W 13:20:35 25° SW 13:27:03 10° SSE daylight
04 Feb - 04:49:52 10° S 04:59:02 17° SE 05:08:00 10° ESE visible
04 Feb - 06:53:54 10° SSW 07:08:58 36° SSE 07:21:50 10° E daylight
04 Feb - 09:03:39 10° WSW 09:19:42 47° S 09:31:19 10° ESE daylight
04 Feb - 11:15:56 10° W 11:29:43 41° SSW 11:38:52 10° SE daylight
04 Feb - 13:29:59 10° W 13:37:48 20° SW 13:43:38 10° S daylight
